Voltar ao catálogo

COSMOS 2251 DEB

AtivoLEO
NORAD 35789·DEBRIS·🇷🇺 Russia

Lançado Jun 16, 1993 de Plesetsk Cosmodrome

Loading…

Próximas Passagens (próximas 24 horas)

TLE

EnvelhecendoSource: Space-Track

Época: Sep 11, 2026, 02:51 UTC

1 35789U 93036ASK 26254.11897509  .00000149  00000-0  59483-4 0  9999
2 35789  74.0385 144.3370 0048046 180.0475 180.0682 14.36145030651374

Acompanhe COSMOS 2251 DEB em tempo real com AllMySat

Download on the App Store